MST,Max TemperatureF,Mean TemperatureF,Min TemperatureF,Max Dew PointF,MeanDew PointF,Min DewpointF,Max Humidity, Mean Humidity, Min Humidity, Max Sea Level PressureIn, Mean Sea Level PressureIn, Min Sea Level PressureIn, Max VisibilityMiles, Mean VisibilityMiles, Min VisibilityMiles, Max Wind SpeedMPH, Mean Wind SpeedMPH, Max Gust SpeedMPH,PrecipitationIn, CloudCover, Events, WindDirDegrees
2012-12-1,62,47,32,30,16,10,65,31,13,30.28,30.22,30.19,10,10,10,14,9,,0.00,0,,196
2012-12-2,59,47,35,27,17,7,49,31,18,30.22,30.17,30.13,10,10,10,26,13,33,0.00,0,,194
2012-12-3,57,44,32,36,31,25,87,60,38,30.32,30.21,30.09,10,10,9,21,11,28,0.00,0,,207
2012-12-4,59,44,28,32,22,14,93,55,17,30.45,30.38,30.31,10,10,7,10,3,,0.00,0,,47
2012-12-5,64,48,32,23,19,14,60,35,15,30.36,30.26,30.16,10,9,3,15,6,16,0.00,0,,192
2012-12-6,59,49,39,27,21,14,45,33,24,30.10,30.04,29.99,10,10,10,14,8,20,0.00,1,,211
2012-12-7,55,42,28,28,25,19,75,53,33,30.07,30.03,29.98,10,10,10,13,6,,0.00,0,,198
2012-12-8,53,42,30,32,27,25,87,62,33,30.06,30.01,29.96,10,10,10,14,9,20,0.00,0,,193
2012-12-9,48,32,15,27,15,0,70,46,28,30.20,30.06,29.98,10,10,10,21,13,30,0.00,1,Rain,192
2012-12-10,39,24,8,5,0,-4,62,39,20,30.22,30.15,30.09,10,10,10,13,6,16,0.00,0,Snow,28
2012-12-11,41,28,14,9,6,3,67,42,24,30.16,30.10,30.07,10,10,7,15,3,17,0.00,0,,83
2012-12-12,51,40,28,7,5,1,40,25,16,30.10,30.06,30.03,10,9,3,28,14,34,0.00,0,,185
2012-12-13,51,38,26,34,20,7,93,48,22,30.05,29.97,29.81,10,9,3,33,10,39,0.09,1,Rain,179
2012-12-14,33,30,28,32,28,25,100,89,80,29.98,29.83,29.67,10,5,0,29,11,37,0.53,8,Rain-Snow,201
2012-12-15,32,30,28,30,28,27,100,90,86,29.96,29.90,29.84,10,4,0,26,19,36,0.01,8,Rain-Snow,199
2012-12-16,32,29,26,28,25,23,93,87,75,30.14,30.03,29.93,10,8,1,17,11,22,0.00,4,Rain-Snow,204
2012-12-17,33,27,21,28,24,18,93,86,75,30.14,30.09,30.00,10,10,10,24,13,29,0.00,0,,192
2012-12-18,42,35,28,34,29,25,93,78,61,30.00,29.86,29.67,10,9,2,24,17,34,0.01,3,Rain,195
2012-12-19,35,22,10,34,17,7,100,74,46,30.33,29.98,29.63,10,8,1,31,15,43,0.02,3,Rain-Snow,291
2012-12-20,32,19,6,18,11,1,86,71,51,30.41,30.36,30.32,10,10,10,7,4,,0.00,0,,24
2012-12-21,50,30,10,21,14,7,93,69,20,30.33,30.26,30.18,10,10,10,9,0,,0.00,0,,224
2012-12-22,50,37,24,28,23,18,80,59,37,30.22,30.18,30.13,10,10,10,20,6,25,0.00,0,,201
2012-12-23,48,38,28,25,17,7,80,46,20,30.21,30.14,30.07,10,10,10,14,10,16,0.00,0,,195
2012-12-24,41,32,24,32,20,5,93,61,28,30.07,29.95,29.84,10,9,0,20,11,33,0.01,3,Rain-Snow,219
2012-12-25,26,18,10,19,12,3,86,70,51,30.13,30.05,29.95,10,10,10,10,6,,0.00,2,,355
2012-12-26,41,29,17,19,13,7,79,47,28,29.99,29.86,29.77,10,10,10,31,15,41,0.00,0,,200
2012-12-27,32,26,19,23,19,16,93,79,51,29.96,29.85,29.78,10,9,0,14,7,17,0.01,4,Rain-Snow,207
2012-12-28,30,22,14,19,15,9,93,77,55,30.18,30.08,29.96,10,10,10,9,4,,0.00,2,,45
2012-12-29,42,24,6,16,11,1,85,59,31,30.17,30.08,29.98,10,10,10,16,4,23,0.00,0,,190
2012-12-30,41,34,26,25,18,12,93,55,33,29.91,29.84,29.79,10,8,1,23,13,32,0.00,4,Rain-Snow,200
2012-12-31,28,24,19,25,20,18,100,84,64,30.11,29.98,29.83,10,8,1,15,10,20,0.00,5,Rain-Snow,211